Time,TemperatureF,DewpointF,PressureIn,WindDirection,WindDirectionDegrees,WindSpeedMPH,WindSpeedGustMPH,Humidity,HourlyPrecipIn,Conditions,Clouds,dailyrainin,SoftwareType,DateUTC
2013-12-02 00:02:00,31.5,26.3,29.59,ENE,68,0.0,0.0,81,0.00,,---,0.00,VWS V14.01,2013-12-02 05:02:00,
2013-12-02 00:03:00,31.5,26.3,29.59,ENE,68,0.0,0.0,81,0.00,,---,0.00,VWS V14.01,2013-12-02 05:03:00,
2013-12-02 00:05:00,31.5,26.3,29.59,ENE,68,0.0,0.0,81,0.00,,---,0.00,VWS V14.01,2013-12-02 05:05:00,
2013-12-02 00:07:00,31.5,26.3,29.59,ENE,68,0.0,0.0,81,0.00,,---,0.00,VWS V14.01,2013-12-02 05:07:00,
2013-12-02 00:09:00,31.5,26.3,29.59,ENE,68,0.0,0.0,81,0.00,,---,0.00,VWS V14.01,2013-12-02 05:09:00,
2013-12-02 00:14:00,31.5,26.3,29.59,ENE,68,0.0,0.0,81,0.00,,---,0.00,VWS V14.01,2013-12-02 05:14:00,
2013-12-02 00:16:00,31.5,26.3,29.59,ENE,68,0.0,0.0,81,0.00,,---,0.00,VWS V14.01,2013-12-02 05:16:00,
2013-12-02 00:21:00,31.5,26.3,29.59,ENE,68,0.0,0.0,81,0.00,,---,0.00,VWS V14.01,2013-12-02 05:21:00,
2013-12-02 00:26:00,31.5,26.3,29.59,ENE,68,0.0,0.0,81,0.00,,---,0.00,VWS V14.01,2013-12-02 05:26:00,
2013-12-02 00:32:00,31.5,26.3,29.59,ENE,68,0.0,0.0,81,0.00,,---,0.00,VWS V14.01,2013-12-02 05:32:00,
2013-12-02 00:38:00,31.5,26.3,29.59,ENE,68,0.0,0.0,81,0.00,,---,0.00,VWS V14.01,2013-12-02 05:38:00,
2013-12-02 00:43:00,31.5,26.3,29.59,ENE,68,0.0,0.0,81,0.00,,---,0.00,VWS V14.01,2013-12-02 05:43:00,
2013-12-02 00:48:00,31.5,26.3,29.59,ENE,68,0.0,0.0,81,0.00,,---,0.00,VWS V14.01,2013-12-02 05:48:00,
2013-12-02 00:53:00,31.5,26.6,29.59,ENE,68,0.0,0.0,82,0.00,,---,0.00,VWS V14.01,2013-12-02 05:53:00,
2013-12-02 00:58:00,31.5,26.6,29.59,ENE,68,0.0,0.0,82,0.00,,---,0.00,VWS V14.01,2013-12-02 05:58:00,
2013-12-02 01:03:00,31.5,26.6,29.59,ENE,68,0.0,0.0,82,0.00,,---,0.00,VWS V14.01,2013-12-02 06:03:00,
2013-12-02 01:08:00,31.5,26.6,29.59,ENE,68,0.0,0.0,82,0.00,,---,0.00,VWS V14.01,2013-12-02 06:08:00,
2013-12-02 01:13:00,31.5,26.6,29.59,ENE,68,0.0,0.0,82,0.00,,---,0.00,VWS V14.01,2013-12-02 06:13:00,
2013-12-02 01:18:00,31.5,26.9,29.59,ENE,68,0.0,0.0,83,0.00,,---,0.00,VWS V14.01,2013-12-02 06:18:00,
2013-12-02 01:24:00,31.5,26.6,29.59,ENE,68,0.0,0.0,82,0.00,,---,0.00,VWS V14.01,2013-12-02 06:24:00,
2013-12-02 01:29:00,31.6,27.1,29.59,ENE,68,0.0,0.0,83,0.00,,---,0.00,VWS V14.01,2013-12-02 06:29:00,
2013-12-02 01:34:00,31.6,27.1,29.59,ENE,68,0.0,0.0,83,0.00,,---,0.00,VWS V14.01,2013-12-02 06:34:00,
2013-12-02 01:40:00,31.6,27.1,29.59,ENE,68,0.0,0.0,83,0.00,,---,0.00,VWS V14.01,2013-12-02 06:40:00,
2013-12-02 01:46:00,31.6,27.1,29.59,ENE,68,0.0,0.0,83,0.00,,---,0.00,VWS V14.01,2013-12-02 06:46:00,
2013-12-02 01:51:00,31.6,27.1,29.59,ENE,68,0.0,0.0,83,0.00,,---,0.00,VWS V14.01,2013-12-02 06:51:00,
2013-12-02 01:56:00,31.6,27.1,29.59,ENE,68,0.0,0.0,83,0.00,,---,0.00,VWS V14.01,2013-12-02 06:56:00,
2013-12-02 02:01:00,31.6,27.1,29.59,ENE,68,0.0,0.0,83,0.00,,---,0.00,VWS V14.01,2013-12-02 07:01:00,
2013-12-02 02:06:00,31.6,27.1,29.59,ENE,68,0.0,0.0,83,0.00,,---,0.00,VWS V14.01,2013-12-02 07:06:00,
2013-12-02 02:11:00,31.6,27.4,29.59,ENE,68,0.0,0.0,84,0.00,,---,0.00,VWS V14.01,2013-12-02 07:11:00,
2013-12-02 02:16:00,31.6,27.4,29.59,ENE,68,0.0,0.0,84,0.00,,---,0.00,VWS V14.01,2013-12-02 07:16:00,
2013-12-02 02:21:00,31.8,27.5,29.59,ENE,68,0.0,0.0,84,0.00,,---,0.00,VWS V14.01,2013-12-02 07:21:00,
2013-12-02 02:26:00,31.8,27.5,29.56,ENE,68,0.0,0.0,84,0.00,,---,0.00,VWS V14.01,2013-12-02 07:26:00,
2013-12-02 02:31:00,31.8,27.5,29.56,ENE,68,0.0,0.0,84,0.00,,---,0.00,VWS V14.01,2013-12-02 07:31:00,
2013-12-02 02:36:00,31.8,27.5,29.56,ENE,68,0.0,0.0,84,0.00,,---,0.00,VWS V14.01,2013-12-02 07:36:00,
2013-12-02 02:41:00,31.8,27.5,29.56,ENE,68,0.0,0.0,84,0.00,,---,0.00,VWS V14.01,2013-12-02 07:41:00,
2013-12-02 02:46:00,32.0,28.0,29.56,ENE,68,0.0,0.0,85,0.00,,---,0.00,VWS V14.01,2013-12-02 07:46:00,
2013-12-02 02:51:00,32.0,28.0,29.56,ENE,68,0.0,0.0,85,0.00,,---,0.00,VWS V14.01,2013-12-02 07:51:00,
2013-12-02 02:56:00,32.0,28.0,29.56,ENE,68,0.0,0.0,85,0.00,,---,0.00,VWS V14.01,2013-12-02 07:56:00,
2013-12-02 03:02:00,32.0,28.0,29.56,ENE,68,0.0,0.0,85,0.00,,---,0.00,VWS V14.01,2013-12-02 08:02:00,
2013-12-02 03:07:00,32.2,28.2,29.56,ENE,68,0.0,0.0,85,0.00,,---,0.00,VWS V14.01,2013-12-02 08:07:00,
2013-12-02 03:12:00,32.2,28.2,29.56,ENE,68,0.0,0.0,85,0.00,,---,0.00,VWS V14.01,2013-12-02 08:12:00,
2013-12-02 03:17:00,32.2,28.2,29.56,ENE,68,0.0,0.0,85,0.00,,---,0.00,VWS V14.01,2013-12-02 08:17:00,
2013-12-02 03:22:00,32.2,28.2,29.56,ENE,68,0.0,0.0,85,0.00,,---,0.00,VWS V14.01,2013-12-02 08:22:00,
2013-12-02 03:27:00,32.2,28.2,29.56,ENE,68,0.0,0.0,85,0.00,,---,0.00,VWS V14.01,2013-12-02 08:27:00,
2013-12-02 03:32:00,32.4,28.4,29.56,ENE,68,0.0,0.0,85,0.00,,---,0.00,VWS V14.01,2013-12-02 08:32:00,
2013-12-02 03:37:00,32.4,28.6,29.56,ENE,68,0.0,0.0,86,0.00,,---,0.00,VWS V14.01,2013-12-02 08:37:00,
2013-12-02 03:42:00,32.4,28.6,29.56,ENE,68,0.0,0.0,86,0.00,,---,0.00,VWS V14.01,2013-12-02 08:42:00,
2013-12-02 03:47:00,32.4,28.6,29.56,ENE,68,0.0,0.0,86,0.00,,---,0.00,VWS V14.01,2013-12-02 08:47:00,
2013-12-02 03:52:00,32.5,28.8,29.56,ENE,68,0.0,0.0,86,0.00,,---,0.00,VWS V14.01,2013-12-02 08:52:00,
2013-12-02 03:57:00,32.5,28.8,29.56,ENE,68,0.0,0.0,86,0.00,,---,0.00,VWS V14.01,2013-12-02 08:57:00,
2013-12-02 04:02:00,32.5,28.8,29.56,ENE,68,0.0,0.0,86,0.00,,---,0.00,VWS V14.01,2013-12-02 09:02:00,
2013-12-02 04:07:00,32.5,28.8,29.56,ENE,68,0.0,0.0,86,0.00,,---,0.00,VWS V14.01,2013-12-02 09:07:00,
2013-12-02 04:12:00,32.5,29.1,29.56,ENE,68,0.0,0.0,87,0.00,,---,0.00,VWS V14.01,2013-12-02 09:12:00,
2013-12-02 04:17:00,32.5,29.1,29.56,ENE,68,0.0,0.0,87,0.00,,---,0.00,VWS V14.01,2013-12-02 09:17:00,
2013-12-02 04:22:00,32.5,29.1,29.56,ENE,68,0.0,0.0,87,0.00,,---,0.00,VWS V14.01,2013-12-02 09:22:00,
2013-12-02 04:27:00,32.5,29.1,29.56,ENE,68,0.0,0.0,87,0.00,,---,0.00,VWS V14.01,2013-12-02 09:27:00,
2013-12-02 04:32:00,32.5,29.1,29.56,ENE,68,0.0,0.0,87,0.00,,---,0.00,VWS V14.01,2013-12-02 09:32:00,
2013-12-02 04:37:00,32.5,29.1,29.56,ENE,68,0.0,0.0,87,0.00,,---,0.00,VWS V14.01,2013-12-02 09:37:00,
2013-12-02 04:43:00,32.5,29.1,29.56,ENE,68,0.0,0.0,87,0.00,,---,0.00,VWS V14.01,2013-12-02 09:43:00,
2013-12-02 04:48:00,32.5,29.1,29.56,ENE,68,0.0,0.0,87,0.00,,---,0.00,VWS V14.01,2013-12-02 09:48:00,
2013-12-02 04:53:00,32.5,29.1,29.56,ENE,68,0.0,0.0,87,0.00,,---,0.00,VWS V14.01,2013-12-02 09:53:00,
2013-12-02 04:59:00,32.7,29.3,29.56,ENE,68,0.0,0.0,87,0.00,,---,0.00,VWS V14.01,2013-12-02 09:59:00,
2013-12-02 05:04:00,32.7,29.3,29.56,ENE,68,0.0,0.0,87,0.00,,---,0.00,VWS V14.01,2013-12-02 10:04:00,
2013-12-02 05:09:00,32.7,29.3,29.53,ENE,68,0.0,0.0,87,0.00,,---,0.00,VWS V14.01,2013-12-02 10:09:00,
2013-12-02 05:14:00,32.7,29.3,29.53,ENE,68,0.0,0.0,87,0.00,,---,0.00,VWS V14.01,2013-12-02 10:14:00,
2013-12-02 05:19:00,32.7,29.3,29.53,ENE,68,0.0,0.0,87,0.00,,---,0.00,VWS V14.01,2013-12-02 10:19:00,
2013-12-02 05:25:00,32.7,29.3,29.53,ENE,68,0.0,0.0,87,0.00,,---,0.00,VWS V14.01,2013-12-02 10:25:00,
2013-12-02 05:30:00,32.7,29.3,29.53,ENE,68,0.0,0.0,87,0.00,,---,0.00,VWS V14.01,2013-12-02 10:30:00,
2013-12-02 05:35:00,32.7,29.3,29.53,ENE,68,0.0,0.0,87,0.00,,---,0.00,VWS V14.01,2013-12-02 10:35:00,
2013-12-02 05:40:00,32.7,29.3,29.53,ENE,68,0.0,0.0,87,0.00,,---,0.00,VWS V14.01,2013-12-02 10:40:00,
2013-12-02 05:45:00,32.5,29.1,29.53,ENE,68,0.0,0.0,87,0.00,,---,0.00,VWS V14.01,2013-12-02 10:45:00,
2013-12-02 05:51:00,32.5,28.8,29.53,ENE,68,0.0,0.0,86,0.00,,---,0.00,VWS V14.01,2013-12-02 10:51:00,
2013-12-02 05:56:00,32.7,29.0,29.53,ENE,68,0.0,0.0,86,0.00,,---,0.00,VWS V14.01,2013-12-02 10:56:00,
2013-12-02 06:01:00,32.7,29.3,29.53,ENE,68,0.0,0.0,87,0.00,,---,0.00,VWS V14.01,2013-12-02 11:01:00,
2013-12-02 06:06:00,32.7,29.3,29.53,ENE,68,0.0,0.0,87,0.00,,---,0.00,VWS V14.01,2013-12-02 11:06:00,
2013-12-02 06:11:00,32.7,29.3,29.53,ENE,68,0.0,0.0,87,0.00,,---,0.00,VWS V14.01,2013-12-02 11:11:00,
2013-12-02 06:16:00,32.9,29.5,29.53,ENE,68,0.0,0.0,87,0.00,,---,0.00,VWS V14.01,2013-12-02 11:16:00,
2013-12-02 06:21:00,32.9,29.5,29.53,ENE,68,0.0,0.0,87,0.00,,---,0.00,VWS V14.01,2013-12-02 11:21:00,
2013-12-02 06:26:00,33.1,29.9,29.56,ENE,68,0.0,0.0,88,0.00,,---,0.00,VWS V14.01,2013-12-02 11:26:00,
2013-12-02 06:31:00,33.1,29.9,29.56,ENE,68,0.0,0.0,88,0.00,,---,0.00,VWS V14.01,2013-12-02 11:31:00,
2013-12-02 06:36:00,32.9,29.5,29.56,ENE,68,0.0,0.0,87,0.00,,---,0.00,VWS V14.01,2013-12-02 11:36:00,
2013-12-02 06:41:00,32.9,29.5,29.53,ENE,68,0.0,0.0,87,0.00,,---,0.00,VWS V14.01,2013-12-02 11:41:00,
2013-12-02 06:46:00,32.9,29.5,29.53,ENE,68,0.0,0.0,87,0.00,,---,0.00,VWS V14.01,2013-12-02 11:46:00,
2013-12-02 06:51:00,32.9,29.5,29.53,ENE,68,0.0,0.0,87,0.00,,---,0.00,VWS V14.01,2013-12-02 11:51:00,
2013-12-02 06:56:00,32.9,29.5,29.53,ENE,68,0.0,0.0,87,0.00,,---,0.00,VWS V14.01,2013-12-02 11:56:00,
2013-12-02 07:02:00,32.9,29.7,29.53,ENE,68,0.0,0.0,88,0.00,,---,0.00,VWS V14.01,2013-12-02 12:02:00,
2013-12-02 07:07:00,32.9,29.7,29.53,ENE,68,0.0,0.0,88,0.00,,---,0.00,VWS V14.01,2013-12-02 12:07:00,
2013-12-02 07:12:00,32.9,29.7,29.53,ENE,68,0.0,0.0,88,0.00,,---,0.00,VWS V14.01,2013-12-02 12:12:00,
2013-12-02 07:17:00,32.9,29.7,29.53,ENE,68,0.0,0.0,88,0.00,,---,0.00,VWS V14.01,2013-12-02 12:17:00,
2013-12-02 07:22:00,32.9,29.7,29.53,ENE,68,0.0,0.0,88,0.00,,---,0.00,VWS V14.01,2013-12-02 12:22:00,
2013-12-02 07:27:00,32.9,29.7,29.53,ENE,68,0.0,0.0,88,0.00,,---,0.00,VWS V14.01,2013-12-02 12:27:00,
2013-12-02 07:32:00,32.9,29.7,29.53,ENE,68,0.0,0.0,88,0.00,,---,0.00,VWS V14.01,2013-12-02 12:32:00,
2013-12-02 07:37:00,32.9,29.7,29.53,ENE,68,0.0,0.0,88,0.00,,---,0.00,VWS V14.01,2013-12-02 12:37:00,
2013-12-02 07:42:00,32.9,29.7,29.53,ENE,68,0.0,0.0,88,0.00,,---,0.00,VWS V14.01,2013-12-02 12:42:00,
2013-12-02 07:47:00,32.9,29.7,29.53,ENE,68,0.0,0.0,88,0.00,,---,0.00,VWS V14.01,2013-12-02 12:47:00,
2013-12-02 07:52:00,33.1,29.9,29.53,ENE,68,0.0,0.0,88,0.00,,---,0.00,VWS V14.01,2013-12-02 12:52:00,
2013-12-02 07:57:00,33.1,29.9,29.53,ENE,68,0.0,0.0,88,0.00,,---,0.00,VWS V14.01,2013-12-02 12:57:00,
2013-12-02 08:04:00,33.1,29.9,29.53,ENE,68,0.0,0.0,88,0.00,,---,0.00,VWS V14.01,2013-12-02 13:04:00,
2013-12-02 08:09:00,33.1,30.2,29.53,ENE,68,0.0,0.0,89,0.00,,---,0.00,VWS V14.01,2013-12-02 13:09:00,
2013-12-02 08:14:00,33.1,30.2,29.53,ENE,68,0.0,0.0,89,0.00,,---,0.00,VWS V14.01,2013-12-02 13:14:00,
2013-12-02 08:19:00,33.3,30.4,29.53,ENE,68,0.0,0.0,89,0.00,,---,0.00,VWS V14.01,2013-12-02 13:19:00,
2013-12-02 08:24:00,33.3,30.4,29.53,ENE,68,0.0,0.0,89,0.00,,---,0.00,VWS V14.01,2013-12-02 13:24:00,
2013-12-02 08:30:00,33.3,30.4,29.53,ENE,68,0.0,0.0,89,0.00,,---,0.00,VWS V14.01,2013-12-02 13:30:00,
2013-12-02 08:35:00,33.3,30.4,29.53,ENE,68,0.0,0.0,89,0.00,,---,0.00,VWS V14.01,2013-12-02 13:35:00,
2013-12-02 08:40:00,33.4,30.5,29.53,ENE,68,0.0,0.0,89,0.00,,---,0.00,VWS V14.01,2013-12-02 13:40:00,
2013-12-02 08:45:00,33.6,30.7,29.53,ENE,68,0.0,0.0,89,0.00,,---,0.00,VWS V14.01,2013-12-02 13:45:00,
2013-12-02 08:50:00,33.6,30.7,29.53,ENE,68,0.0,0.0,89,0.00,,---,0.00,VWS V14.01,2013-12-02 13:50:00,
2013-12-02 08:55:00,33.8,30.6,29.53,ENE,68,0.0,0.0,88,0.00,,---,0.00,VWS V14.01,2013-12-02 13:55:00,
2013-12-02 09:00:00,33.8,30.6,29.53,ENE,68,0.0,0.0,88,0.00,,---,0.00,VWS V14.01,2013-12-02 14:00:00,
2013-12-02 09:05:00,34.0,30.8,29.53,ENE,68,0.0,0.0,88,0.00,,---,0.00,VWS V14.01,2013-12-02 14:05:00,
2013-12-02 09:10:00,34.2,31.0,29.53,ENE,68,0.0,0.0,88,0.00,,---,0.00,VWS V14.01,2013-12-02 14:10:00,
2013-12-02 09:15:00,34.2,31.0,29.53,ENE,68,0.0,0.0,88,0.00,,---,0.00,VWS V14.01,2013-12-02 14:15:00,
2013-12-02 09:20:00,34.2,31.0,29.53,ENE,68,0.0,0.0,88,0.00,,---,0.00,VWS V14.01,2013-12-02 14:20:00,
2013-12-02 09:26:00,34.0,30.8,29.53,ENE,68,0.0,0.0,88,0.00,,---,0.00,VWS V14.01,2013-12-02 14:26:00,
2013-12-02 09:31:00,34.0,30.5,29.53,ENE,68,0.0,0.0,87,0.00,,---,0.00,VWS V14.01,2013-12-02 14:31:00,
2013-12-02 09:36:00,34.0,30.5,29.53,ENE,68,0.0,0.0,87,0.00,,---,0.00,VWS V14.01,2013-12-02 14:36:00,
2013-12-02 09:41:00,34.0,30.5,29.53,ENE,68,0.0,0.0,87,0.00,,---,0.00,VWS V14.01,2013-12-02 14:41:00,
2013-12-02 09:46:00,34.0,30.5,29.53,ENE,68,0.0,0.0,87,0.00,,---,0.00,VWS V14.01,2013-12-02 14:46:00,
2013-12-02 09:51:00,34.3,31.2,29.53,ENE,68,0.0,0.0,88,0.00,,---,0.00,VWS V14.01,2013-12-02 14:51:00,
2013-12-02 09:56:00,34.7,31.5,29.53,ENE,68,0.0,0.0,88,0.00,,---,0.00,VWS V14.01,2013-12-02 14:56:00,
2013-12-02 10:01:00,34.9,31.7,29.53,ENE,68,0.0,0.0,88,0.00,,---,0.00,VWS V14.01,2013-12-02 15:01:00,
2013-12-02 10:06:00,34.9,31.7,29.53,ENE,68,0.0,0.0,88,0.00,,---,0.00,VWS V14.01,2013-12-02 15:06:00,
2013-12-02 10:11:00,35.1,31.6,29.53,ENE,68,0.0,0.0,87,0.00,,---,0.00,VWS V14.01,2013-12-02 15:11:00,
2013-12-02 10:16:00,35.1,31.6,29.53,ENE,68,0.0,0.0,87,0.00,,---,0.00,VWS V14.01,2013-12-02 15:16:00,
2013-12-02 10:21:00,35.4,31.9,29.53,ENE,68,0.0,0.0,87,0.00,,---,0.00,VWS V14.01,2013-12-02 15:21:00,
2013-12-02 10:26:00,35.6,32.1,29.53,ENE,68,0.0,0.0,87,0.00,,---,0.00,VWS V14.01,2013-12-02 15:26:00,
2013-12-02 10:31:00,35.8,32.3,29.53,ENE,68,0.0,0.0,87,0.00,,---,0.00,VWS V14.01,2013-12-02 15:31:00,
2013-12-02 10:36:00,36.0,32.5,29.53,ENE,68,0.0,0.0,87,0.00,,---,0.00,VWS V14.01,2013-12-02 15:36:00,
2013-12-02 10:42:00,36.0,32.2,29.53,ENE,68,0.0,0.0,86,0.00,,---,0.00,VWS V14.01,2013-12-02 15:42:00,
2013-12-02 10:47:00,36.0,32.2,29.53,ENE,68,0.0,0.0,86,0.00,,---,0.00,VWS V14.01,2013-12-02 15:47:00,
2013-12-02 10:52:00,36.0,32.2,29.53,ENE,68,0.0,0.0,86,0.00,,---,0.00,VWS V14.01,2013-12-02 15:52:00,
2013-12-02 10:57:00,36.0,32.2,29.53,ENE,68,0.0,0.0,86,0.00,,---,0.00,VWS V14.01,2013-12-02 15:57:00,
2013-12-02 11:02:00,35.8,32.0,29.53,ENE,68,0.0,0.0,86,0.00,,---,0.00,VWS V14.01,2013-12-02 16:02:00,
2013-12-02 11:07:00,35.8,32.0,29.53,ENE,68,0.0,0.0,86,0.00,,---,0.00,VWS V14.01,2013-12-02 16:07:00,
2013-12-02 11:12:00,35.8,32.0,29.53,ENE,68,0.0,0.0,86,0.00,,---,0.00,VWS V14.01,2013-12-02 16:12:00,
2013-12-02 11:17:00,36.0,32.2,29.53,ENE,68,0.0,0.0,86,0.00,,---,0.00,VWS V14.01,2013-12-02 16:17:00,
2013-12-02 11:22:00,36.1,32.4,29.53,ENE,68,0.0,0.0,86,0.00,,---,0.00,VWS V14.01,2013-12-02 16:22:00,
2013-12-02 11:27:00,36.1,32.7,29.50,ENE,68,0.0,0.0,87,0.00,,---,0.00,VWS V14.01,2013-12-02 16:27:00,
2013-12-02 11:32:00,36.3,32.8,29.50,WNW,292,0.0,0.0,87,0.00,,---,0.00,VWS V14.01,2013-12-02 16:32:00,
2013-12-02 11:38:00,36.5,33.0,29.50,WNW,292,0.0,0.0,87,0.00,,---,0.00,VWS V14.01,2013-12-02 16:38:00,
2013-12-02 11:43:00,36.5,33.0,29.50,WNW,292,0.0,0.0,87,0.00,,---,0.00,VWS V14.01,2013-12-02 16:43:00,
2013-12-02 11:48:00,36.7,33.2,29.50,WNW,292,0.0,0.0,87,0.04,,---,0.04,VWS V14.01,2013-12-02 16:48:00,
2013-12-02 11:53:00,36.9,33.4,29.50,NNE,22,0.0,0.0,87,0.04,,---,0.04,VWS V14.01,2013-12-02 16:53:00,
2013-12-02 11:58:00,37.0,33.5,29.50,NNE,22,0.0,0.0,87,0.04,,---,0.04,VWS V14.01,2013-12-02 16:58:00,
2013-12-02 12:03:00,37.2,33.7,29.50,SSW,202,0.0,0.0,87,0.04,,---,0.04,VWS V14.01,2013-12-02 17:03:00,
2013-12-02 12:08:00,37.4,33.9,29.50,West,270,0.0,0.0,87,0.04,,---,0.04,VWS V14.01,2013-12-02 17:08:00,
2013-12-02 12:13:00,37.4,33.9,29.50,West,270,0.0,0.0,87,0.08,,---,0.08,VWS V14.01,2013-12-02 17:13:00,
2013-12-02 12:18:00,37.4,33.9,29.50,West,270,0.0,0.0,87,0.08,,---,0.08,VWS V14.01,2013-12-02 17:18:00,
2013-12-02 12:23:00,37.4,33.9,29.50,NW,315,0.0,0.0,87,0.08,,---,0.08,VWS V14.01,2013-12-02 17:23:00,
2013-12-02 12:28:00,37.4,33.6,29.50,NW,315,0.0,0.0,86,0.08,,---,0.08,VWS V14.01,2013-12-02 17:28:00,
2013-12-02 12:33:00,37.4,33.6,29.50,SSW,202,0.0,0.0,86,0.08,,---,0.08,VWS V14.01,2013-12-02 17:33:00,
2013-12-02 12:38:00,37.6,34.1,29.50,SSW,202,0.0,0.0,87,0.08,,---,0.08,VWS V14.01,2013-12-02 17:38:00,
2013-12-02 12:43:00,37.6,34.1,29.50,SSW,202,0.0,0.0,87,0.08,,---,0.08,VWS V14.01,2013-12-02 17:43:00,
2013-12-02 12:48:00,37.6,34.1,29.50,SW,225,0.0,0.0,87,0.04,,---,0.08,VWS V14.01,2013-12-02 17:48:00,
2013-12-02 12:53:00,37.6,34.1,29.50,SW,225,0.0,0.0,87,0.04,,---,0.08,VWS V14.01,2013-12-02 17:53:00,
2013-12-02 12:58:00,37.6,34.1,29.50,SW,225,0.0,0.0,87,0.04,,---,0.08,VWS V14.01,2013-12-02 17:58:00,
2013-12-02 13:03:00,37.6,34.1,29.50,SW,225,0.0,0.0,87,0.04,,---,0.08,VWS V14.01,2013-12-02 18:03:00,
2013-12-02 13:08:00,37.8,34.2,29.50,East,90,0.0,0.0,87,0.04,,---,0.08,VWS V14.01,2013-12-02 18:08:00,
2013-12-02 13:13:00,37.9,34.4,29.50,East,90,0.0,0.0,87,0.00,,---,0.08,VWS V14.01,2013-12-02 18:13:00,
2013-12-02 13:18:00,37.9,34.4,29.50,East,90,0.0,0.0,87,0.00,,---,0.08,VWS V14.01,2013-12-02 18:18:00,
2013-12-02 13:23:00,37.9,34.4,29.50,East,90,0.0,0.0,87,0.00,,---,0.08,VWS V14.01,2013-12-02 18:23:00,
2013-12-02 13:28:00,37.9,34.4,29.50,East,90,0.0,0.0,87,0.00,,---,0.08,VWS V14.01,2013-12-02 18:28:00,
2013-12-02 13:33:00,37.9,34.4,29.50,East,90,0.0,0.0,87,0.00,,---,0.08,VWS V14.01,2013-12-02 18:33:00,
2013-12-02 13:38:00,37.9,34.4,29.50,East,90,0.0,0.0,87,0.00,,---,0.08,VWS V14.01,2013-12-02 18:38:00,
2013-12-02 13:44:00,37.9,34.4,29.50,East,90,0.0,0.0,87,0.04,,---,0.12,VWS V14.01,2013-12-02 18:44:00,
2013-12-02 13:49:00,37.9,34.4,29.50,East,90,0.0,0.0,87,0.04,,---,0.12,VWS V14.01,2013-12-02 18:49:00,
2013-12-02 13:54:00,37.9,34.4,29.50,East,90,0.0,0.0,87,0.04,,---,0.12,VWS V14.01,2013-12-02 18:54:00,
2013-12-02 13:59:00,37.9,34.4,29.50,East,90,0.0,0.0,87,0.04,,---,0.12,VWS V14.01,2013-12-02 18:59:00,
2013-12-02 14:04:00,37.9,34.4,29.50,East,90,0.0,0.0,87,0.04,,---,0.12,VWS V14.01,2013-12-02 19:04:00,
2013-12-02 14:09:00,37.9,34.4,29.47,East,90,0.0,0.0,87,0.04,,---,0.12,VWS V14.01,2013-12-02 19:09:00,
2013-12-02 14:14:00,37.8,34.2,29.47,East,90,0.0,0.0,87,0.04,,---,0.12,VWS V14.01,2013-12-02 19:14:00,
2013-12-02 14:19:00,37.8,34.2,29.47,East,90,0.0,0.0,87,0.04,,---,0.12,VWS V14.01,2013-12-02 19:19:00,
2013-12-02 14:24:00,37.8,34.2,29.47,East,90,0.0,0.0,87,0.04,,---,0.12,VWS V14.01,2013-12-02 19:24:00,
2013-12-02 14:29:00,37.8,34.2,29.50,East,90,0.0,0.0,87,0.04,,---,0.12,VWS V14.01,2013-12-02 19:29:00,
2013-12-02 14:34:00,37.8,34.2,29.50,East,90,0.0,0.0,87,0.04,,---,0.12,VWS V14.01,2013-12-02 19:34:00,
2013-12-02 14:39:00,37.8,34.2,29.50,East,90,0.0,0.0,87,0.04,,---,0.12,VWS V14.01,2013-12-02 19:39:00,
2013-12-02 14:44:00,37.6,34.1,29.50,East,90,0.0,0.0,87,0.04,,---,0.12,VWS V14.01,2013-12-02 19:44:00,
2013-12-02 14:49:00,37.6,34.1,29.50,East,90,0.0,0.0,87,0.00,,---,0.12,VWS V14.01,2013-12-02 19:49:00,
2013-12-02 14:54:00,37.4,33.9,29.50,ENE,68,0.0,0.0,87,0.00,,---,0.12,VWS V14.01,2013-12-02 19:54:00,
2013-12-02 14:59:00,37.2,34.0,29.50,ENE,68,0.0,0.0,88,0.00,,---,0.12,VWS V14.01,2013-12-02 19:59:00,
2013-12-02 15:04:00,37.2,34.0,29.50,ENE,68,0.0,0.0,88,0.00,,---,0.12,VWS V14.01,2013-12-02 20:04:00,
2013-12-02 15:09:00,37.0,33.8,29.50,ENE,68,0.0,0.0,88,0.00,,---,0.12,VWS V14.01,2013-12-02 20:09:00,
2013-12-02 15:14:00,36.9,33.7,29.50,ENE,68,0.0,0.0,88,0.00,,---,0.12,VWS V14.01,2013-12-02 20:14:00,
2013-12-02 15:19:00,36.9,33.4,29.50,ENE,68,0.0,0.0,87,0.00,,---,0.12,VWS V14.01,2013-12-02 20:19:00,
2013-12-02 15:24:00,36.7,33.5,29.50,ENE,68,0.0,0.0,88,0.00,,---,0.12,VWS V14.01,2013-12-02 20:24:00,
2013-12-02 15:30:00,36.7,33.5,29.47,ENE,68,0.0,0.0,88,0.00,,---,0.12,VWS V14.01,2013-12-02 20:30:00,
2013-12-02 15:36:00,36.5,33.3,29.47,ENE,68,0.0,0.0,88,0.00,,---,0.12,VWS V14.01,2013-12-02 20:36:00,
2013-12-02 15:41:00,36.3,33.1,29.47,ENE,68,0.0,0.0,88,0.00,,---,0.12,VWS V14.01,2013-12-02 20:41:00,
2013-12-02 15:46:00,36.3,33.1,29.47,ENE,68,0.0,0.0,88,0.00,,---,0.12,VWS V14.01,2013-12-02 20:46:00,
2013-12-02 15:51:00,36.1,32.9,29.47,ENE,68,0.0,0.0,88,0.00,,---,0.12,VWS V14.01,2013-12-02 20:51:00,
2013-12-02 15:56:00,36.1,32.9,29.47,ENE,68,0.0,0.0,88,0.00,,---,0.12,VWS V14.01,2013-12-02 20:56:00,
2013-12-02 16:01:00,36.0,32.8,29.47,ENE,68,0.0,0.0,88,0.00,,---,0.12,VWS V14.01,2013-12-02 21:01:00,
2013-12-02 16:07:00,35.8,32.6,29.47,ENE,68,0.0,0.0,88,0.00,,---,0.12,VWS V14.01,2013-12-02 21:07:00,
2013-12-02 16:13:00,35.8,32.6,29.47,ENE,68,0.0,0.0,88,0.00,,---,0.12,VWS V14.01,2013-12-02 21:13:00,
2013-12-02 16:18:00,35.6,32.4,29.47,ENE,68,0.0,0.0,88,0.00,,---,0.12,VWS V14.01,2013-12-02 21:18:00,
2013-12-02 16:23:00,35.6,32.7,29.47,ENE,68,0.0,0.0,89,0.00,,---,0.12,VWS V14.01,2013-12-02 21:23:00,
2013-12-02 16:28:00,35.4,32.5,29.47,ENE,68,0.0,0.0,89,0.00,,---,0.12,VWS V14.01,2013-12-02 21:28:00,
2013-12-02 16:33:00,35.4,32.5,29.47,ENE,68,0.0,0.0,89,0.00,,---,0.12,VWS V14.01,2013-12-02 21:33:00,
2013-12-02 16:38:00,35.2,32.3,29.47,ENE,68,0.0,0.0,89,0.00,,---,0.12,VWS V14.01,2013-12-02 21:38:00,
2013-12-02 16:43:00,35.1,32.2,29.47,ENE,68,0.0,0.0,89,0.00,,---,0.12,VWS V14.01,2013-12-02 21:43:00,
2013-12-02 16:48:00,35.1,32.2,29.47,ENE,68,0.0,0.0,89,0.00,,---,0.12,VWS V14.01,2013-12-02 21:48:00,
2013-12-02 16:53:00,35.1,32.2,29.47,ENE,68,0.0,0.0,89,0.00,,---,0.12,VWS V14.01,2013-12-02 21:53:00,
2013-12-02 16:58:00,34.9,32.0,29.47,ENE,68,0.0,0.0,89,0.00,,---,0.12,VWS V14.01,2013-12-02 21:58:00,
2013-12-02 17:03:00,34.9,32.0,29.47,ENE,68,0.0,0.0,89,0.00,,---,0.12,VWS V14.01,2013-12-02 22:03:00,
2013-12-02 17:08:00,34.9,32.0,29.47,ENE,68,0.0,0.0,89,0.00,,---,0.12,VWS V14.01,2013-12-02 22:08:00,
2013-12-02 17:13:00,34.7,31.8,29.47,ENE,68,0.0,0.0,89,0.00,,---,0.12,VWS V14.01,2013-12-02 22:13:00,
2013-12-02 17:18:00,34.7,31.8,29.47,ENE,68,0.0,0.0,89,0.00,,---,0.12,VWS V14.01,2013-12-02 22:18:00,
2013-12-02 17:23:00,34.7,31.8,29.47,ENE,68,0.0,0.0,89,0.00,,---,0.12,VWS V14.01,2013-12-02 22:23:00,
2013-12-02 17:28:00,34.5,31.6,29.47,ENE,68,0.0,0.0,89,0.00,,---,0.12,VWS V14.01,2013-12-02 22:28:00,
2013-12-02 17:33:00,34.5,31.6,29.47,ENE,68,0.0,0.0,89,0.00,,---,0.12,VWS V14.01,2013-12-02 22:33:00,
2013-12-02 17:38:00,34.5,31.6,29.47,ENE,68,0.0,0.0,89,0.00,,---,0.12,VWS V14.01,2013-12-02 22:38:00,
2013-12-02 17:43:00,34.5,31.6,29.47,ENE,68,0.0,0.0,89,0.00,,---,0.12,VWS V14.01,2013-12-02 22:43:00,
2013-12-02 17:48:00,34.5,31.9,29.47,ENE,68,0.0,0.0,90,0.00,,---,0.12,VWS V14.01,2013-12-02 22:48:00,
2013-12-02 17:53:00,34.5,31.9,29.47,ENE,68,0.0,0.0,90,0.00,,---,0.12,VWS V14.01,2013-12-02 22:53:00,
2013-12-02 17:58:00,34.5,31.9,29.47,ENE,68,0.0,0.0,90,0.00,,---,0.12,VWS V14.01,2013-12-02 22:58:00,
2013-12-02 18:03:00,34.5,31.9,29.47,ENE,68,0.0,0.0,90,0.00,,---,0.12,VWS V14.01,2013-12-02 23:03:00,
2013-12-02 18:08:00,34.5,31.9,29.47,ENE,68,0.0,0.0,90,0.00,,---,0.12,VWS V14.01,2013-12-02 23:08:00,
2013-12-02 18:13:00,34.3,31.7,29.47,ENE,68,0.0,0.0,90,0.00,,---,0.12,VWS V14.01,2013-12-02 23:13:00,
2013-12-02 18:18:00,34.3,31.7,29.47,ENE,68,0.0,0.0,90,0.00,,---,0.12,VWS V14.01,2013-12-02 23:18:00,
2013-12-02 18:23:00,34.3,31.7,29.47,ENE,68,0.0,0.0,90,0.00,,---,0.12,VWS V14.01,2013-12-02 23:23:00,
2013-12-02 18:28:00,34.3,31.7,29.47,ENE,68,0.0,0.0,90,0.00,,---,0.12,VWS V14.01,2013-12-02 23:28:00,
2013-12-02 18:33:00,34.3,31.7,29.47,ENE,68,0.0,0.0,90,0.00,,---,0.12,VWS V14.01,2013-12-02 23:33:00,
2013-12-02 18:38:00,34.3,31.7,29.47,ENE,68,0.0,0.0,90,0.00,,---,0.12,VWS V14.01,2013-12-02 23:38:00,
2013-12-02 18:43:00,34.2,31.5,29.47,ENE,68,0.0,0.0,90,0.00,,---,0.12,VWS V14.01,2013-12-02 23:43:00,
2013-12-02 18:49:00,34.3,32.0,29.47,ENE,68,0.0,0.0,91,0.05,,---,0.17,VWS V14.01,2013-12-02 23:49:00,
2013-12-02 18:55:00,34.2,31.8,29.47,ENE,68,0.0,0.0,91,0.05,,---,0.17,VWS V14.01,2013-12-02 23:55:00,
2013-12-02 19:00:00,34.2,31.8,29.47,ENE,68,0.0,0.0,91,0.05,,---,0.17,VWS V14.01,2013-12-03 00:00:00,
2013-12-02 19:05:00,34.2,31.8,29.47,ENE,68,0.0,0.0,91,0.05,,---,0.17,VWS V14.01,2013-12-03 00:05:00,
2013-12-02 19:11:00,34.0,31.6,29.47,ENE,68,0.0,0.0,91,0.05,,---,0.17,VWS V14.01,2013-12-03 00:11:00,
2013-12-02 19:16:00,34.0,31.6,29.47,ENE,68,0.0,0.0,91,0.05,,---,0.17,VWS V14.01,2013-12-03 00:16:00,
2013-12-02 19:21:00,34.0,31.6,29.47,ENE,68,0.0,0.0,91,0.05,,---,0.17,VWS V14.01,2013-12-03 00:21:00,
2013-12-02 19:26:00,34.0,31.6,29.50,ENE,68,0.0,0.0,91,0.05,,---,0.17,VWS V14.01,2013-12-03 00:26:00,
2013-12-02 19:31:00,34.0,31.6,29.50,ENE,68,0.0,0.0,91,0.05,,---,0.17,VWS V14.01,2013-12-03 00:31:00,
2013-12-02 19:37:00,34.0,31.6,29.50,ENE,68,0.0,0.0,91,0.05,,---,0.17,VWS V14.01,2013-12-03 00:37:00,
2013-12-02 19:43:00,34.2,32.1,29.47,ENE,68,0.0,0.0,92,0.05,,---,0.17,VWS V14.01,2013-12-03 00:43:00,
2013-12-02 19:49:00,34.0,31.6,29.47,ENE,68,0.0,0.0,91,0.00,,---,0.17,VWS V14.01,2013-12-03 00:49:00,
2013-12-02 19:54:00,34.0,31.9,29.47,ENE,68,0.0,0.0,92,0.00,,---,0.17,VWS V14.01,2013-12-03 00:54:00,
2013-12-02 19:59:00,34.0,31.6,29.47,ENE,68,0.0,0.0,91,0.00,,---,0.17,VWS V14.01,2013-12-03 00:59:00,
2013-12-02 20:04:00,34.0,31.6,29.47,ENE,68,0.0,0.0,91,0.00,,---,0.17,VWS V14.01,2013-12-03 01:04:00,
2013-12-02 20:09:00,34.0,31.9,29.47,ENE,68,0.0,0.0,92,0.00,,---,0.17,VWS V14.01,2013-12-03 01:09:00,
2013-12-02 20:15:00,34.0,31.9,29.47,ENE,68,0.0,0.0,92,0.00,,---,0.17,VWS V14.01,2013-12-03 01:15:00,
2013-12-02 20:20:00,33.8,31.7,29.47,ENE,68,0.0,0.0,92,0.00,,---,0.17,VWS V14.01,2013-12-03 01:20:00,
2013-12-02 20:25:00,33.8,31.7,29.47,ENE,68,0.0,0.0,92,0.00,,---,0.17,VWS V14.01,2013-12-03 01:25:00,
2013-12-02 20:30:00,33.8,31.7,29.47,ENE,68,0.0,0.0,92,0.00,,---,0.17,VWS V14.01,2013-12-03 01:30:00,
2013-12-02 20:36:00,33.8,31.7,29.47,ENE,68,0.0,0.0,92,0.00,,---,0.17,VWS V14.01,2013-12-03 01:36:00,
2013-12-02 20:41:00,33.8,31.7,29.47,ENE,68,0.0,0.0,92,0.00,,---,0.17,VWS V14.01,2013-12-03 01:41:00,
2013-12-02 20:46:00,33.8,31.7,29.47,ENE,68,0.0,0.0,92,0.00,,---,0.17,VWS V14.01,2013-12-03 01:46:00,
2013-12-02 20:51:00,33.8,31.7,29.47,ENE,68,0.0,0.0,92,0.00,,---,0.17,VWS V14.01,2013-12-03 01:51:00,
2013-12-02 20:56:00,33.8,31.7,29.47,ENE,68,0.0,0.0,92,0.00,,---,0.17,VWS V14.01,2013-12-03 01:56:00,
2013-12-02 21:01:00,33.8,31.7,29.47,ENE,68,0.0,0.0,92,0.00,,---,0.17,VWS V14.01,2013-12-03 02:01:00,
2013-12-02 21:06:00,33.8,31.7,29.47,ENE,68,0.0,0.0,92,0.00,,---,0.17,VWS V14.01,2013-12-03 02:06:00,
2013-12-02 21:11:00,33.8,31.7,29.47,ENE,68,0.0,0.0,92,0.00,,---,0.17,VWS V14.01,2013-12-03 02:11:00,
2013-12-02 21:16:00,33.8,31.7,29.47,ENE,68,0.0,0.0,92,0.00,,---,0.17,VWS V14.01,2013-12-03 02:16:00,
2013-12-02 21:21:00,33.8,31.7,29.47,ENE,68,0.0,0.0,92,0.00,,---,0.17,VWS V14.01,2013-12-03 02:21:00,
2013-12-02 21:26:00,33.8,31.7,29.47,ENE,68,0.0,0.0,92,0.00,,---,0.17,VWS V14.01,2013-12-03 02:26:00,
2013-12-02 21:31:00,33.8,31.7,29.47,ENE,68,0.0,0.0,92,0.00,,---,0.17,VWS V14.01,2013-12-03 02:31:00,
2013-12-02 21:37:00,33.8,31.7,29.47,ENE,68,0.0,0.0,92,0.00,,---,0.17,VWS V14.01,2013-12-03 02:37:00,
2013-12-02 21:42:00,33.8,32.0,29.44,ENE,68,0.0,0.0,93,0.00,,---,0.17,VWS V14.01,2013-12-03 02:42:00,
2013-12-02 21:47:00,33.8,32.0,29.44,ENE,68,0.0,0.0,93,0.00,,---,0.17,VWS V14.01,2013-12-03 02:47:00,
2013-12-02 21:52:00,33.8,32.0,29.44,ENE,68,0.0,0.0,93,0.00,,---,0.17,VWS V14.01,2013-12-03 02:52:00,
2013-12-02 21:58:00,33.6,31.8,29.44,ENE,68,0.0,0.0,93,0.00,,---,0.17,VWS V14.01,2013-12-03 02:58:00,
2013-12-02 22:03:00,33.6,31.8,29.44,ENE,68,0.0,0.0,93,0.00,,---,0.17,VWS V14.01,2013-12-03 03:03:00,
2013-12-02 22:08:00,33.6,31.8,29.44,ENE,68,0.0,0.0,93,0.00,,---,0.17,VWS V14.01,2013-12-03 03:08:00,
2013-12-02 22:13:00,33.6,31.8,29.44,ENE,68,0.0,0.0,93,0.00,,---,0.17,VWS V14.01,2013-12-03 03:13:00,
2013-12-02 22:18:00,33.6,31.8,29.44,ENE,68,0.0,0.0,93,0.00,,---,0.17,VWS V14.01,2013-12-03 03:18:00,
2013-12-02 22:23:00,33.6,31.8,29.44,ENE,68,0.0,0.0,93,0.00,,---,0.17,VWS V14.01,2013-12-03 03:23:00,
2013-12-02 22:28:00,33.6,31.8,29.44,South,180,0.0,0.0,93,0.00,,---,0.17,VWS V14.01,2013-12-03 03:28:00,
2013-12-02 22:33:00,33.6,31.8,29.44,South,180,0.0,0.0,93,0.00,,---,0.17,VWS V14.01,2013-12-03 03:33:00,
2013-12-02 22:38:00,33.6,31.8,29.44,South,180,0.0,0.0,93,0.00,,---,0.17,VWS V14.01,2013-12-03 03:38:00,
2013-12-02 22:43:00,33.6,31.8,29.44,ENE,68,0.0,0.0,93,0.00,,---,0.17,VWS V14.01,2013-12-03 03:43:00,
2013-12-02 22:49:00,33.8,32.0,29.44,ENE,68,0.0,0.0,93,0.00,,---,0.17,VWS V14.01,2013-12-03 03:49:00,
2013-12-02 22:54:00,33.8,32.0,29.44,ENE,68,0.0,0.0,93,0.00,,---,0.17,VWS V14.01,2013-12-03 03:54:00,
2013-12-02 22:59:00,33.8,32.0,29.44,ENE,68,0.0,0.0,93,0.00,,---,0.17,VWS V14.01,2013-12-03 03:59:00,
2013-12-02 23:04:00,33.6,31.8,29.44,ENE,68,0.0,0.0,93,0.00,,---,0.17,VWS V14.01,2013-12-03 04:04:00,
2013-12-02 23:09:00,33.6,31.8,29.44,ENE,68,0.0,0.0,93,0.00,,---,0.17,VWS V14.01,2013-12-03 04:09:00,
2013-12-02 23:15:00,33.8,32.0,29.44,ENE,68,0.0,0.0,93,0.00,,---,0.17,VWS V14.01,2013-12-03 04:15:00,
2013-12-02 23:20:00,33.8,32.0,29.44,NNW,338,0.0,0.0,93,0.00,,---,0.17,VWS V14.01,2013-12-03 04:20:00,
2013-12-02 23:25:00,33.8,32.0,29.44,NNW,338,0.0,0.0,93,0.00,,---,0.17,VWS V14.01,2013-12-03 04:25:00,
2013-12-02 23:31:00,33.8,32.0,29.44,NNW,338,0.0,0.0,93,0.00,,---,0.17,VWS V14.01,2013-12-03 04:31:00,
2013-12-02 23:36:00,33.8,32.0,29.44,NNW,338,0.0,0.0,93,0.00,,---,0.17,VWS V14.01,2013-12-03 04:36:00,
2013-12-02 23:42:00,33.8,32.0,29.44,NNW,338,0.0,0.0,93,0.00,,---,0.17,VWS V14.01,2013-12-03 04:42:00,
2013-12-02 23:48:00,33.8,32.0,29.44,NNW,338,0.0,0.0,93,0.00,,---,0.17,VWS V14.01,2013-12-03 04:48:00,
2013-12-02 23:53:00,33.8,32.3,29.44,NNW,338,0.0,0.0,94,0.00,,---,0.17,VWS V14.01,2013-12-03 04:53:00,
2013-12-02 23:58:00,33.8,32.3,29.44,NNW,338,0.0,0.0,94,0.00,,---,0.17,VWS V14.01,2013-12-03 04:58:00,